Weather in Kingston upon Hull

United Kingdom     53°45′42″N   0°17′56″E
temp.,
°C
wind,
m/s
gust,
m/s
humid.,
%
clouds,
%
prec.,
mm/h
press.,
hPa
HPBL,
m
15 may, sat
sat1501:00+7se248594 0.0 1006154
04:00+7se2587100 0.0 1004190
07:00+8ese3694100 0.1 1003266
10:00+9se4591100 0.9 1002481
13:00+11ese4587100 2.4 1001647
16:00+9se4796100 1.9 1000449
19:00+9se259599 2.9 999240
22:00+8se2696100 0.0 999216
16 may, sun
sun1601:00+8se2597100 0.0 998172
04:00+7sse1197100 0.1 99717
07:00+9sse129498 0.2 997153
10:00+11se1285100 1.4 997378
13:00+13e2278100 3.4 997710
16:00+13e448082 1.4 997664
19:00+10ene358797 2.2 997308
22:00+8ene349550 0.1 99880
17 may, mon
mon1701:00+7nne339511 0.1 99853
04:00+6n239728 0.0 99952
07:00+8nnw349582 0.0 1000207
10:00+11n2377100 0.1 1002848
13:00+11ne2279100 0.5 1003577
16:00+11ene1189100 2.9 1003203
19:00+11wsw258920 5.6 1003519
22:00+7w259668 0.2 1004100
18 may, tue
tue1801:00+6w389595 0.4 1005188
04:00+5wsw369538 0.0 1006135
07:00+7wsw489385 0.0 1007277
10:00+12w57695 0.3 10081028
13:00+13wsw676197 0.8 10081313
16:00+13w687228 0.7 10101290
19:00+11w587799 1.3 1010936
22:00+7wsw498913 0.0 1012267
19 may, wed
wed1901:00+7wsw3788100 0.0 1012184
04:00+8sw4891100 0.1 1012333
07:00+9w51093100 1.2 1013544
10:00+9nw3693100 0.6 1015466
13:00+12n567979 1.1 10171059
16:00+12nne566760 0.3 1019883
19:00+10ne35755 0.3 1020477
22:00+6ene2294100 0.0 102120